[[{"header":{"parameterUnit":"m.s-1","parameterCategory":1,"la1":30.2991,"la2":30.254,"lo1":-89.0895,"lo2":-89.0444,"dy":0.0017,"dx":0.0017,"nx":28,"ny":28,"refTime":"2025-04-09T09:00:00:Z","depth":0,"parameterNumber":2,"parameterNumberName":"U-component_of_WINDS"},"data":[0,0,0,0,0,0,0,0,0,0,0,0,0,0,0,0,0,0,0,0,0,0,0,0,0,0,0,0,0,0,0,0,0,0,0,0,0,0,0,0,0,0,0,0,0,0,0,0,0,0,0,0,0,0,0,0,0,0,0.7045,0.7046,0,0.7132,0.7133,0.7134,0.7147,0.7146,0.7145,0.7144,0.7236,0.7239,0.7242,0,0,0,0,0,0,0,0,0,0,0,0,0,0.689,0.6893,0.7045,0.7046,0.7047,0.7132,0.7133,0.7134,0.7147,0.7146,0.7145,0.7144,0.7235,0.7238,0.7242,0,0,0,0,0,0,0,0,0,0,0,0,0,0.6966,0.6894,0.7045,0.7063,0.7066,0.7132,0.7133,0.7135,0.7147,0.7146,0.7145,0.7143,0.7233,0.7238,0.7243,0.7296,0,0,0.7257,0.7259,0,0,0,0,0,0,0,0,0.6961,0.6971,0.706,0.7062,0.7065,0.7127,0.7112,0.7189,0.7147,0.7116,0.7144,0.7143,0.7201,0.7208,0.7227,0.7301,0.7304,0.7258,0.7261,0.7263,0.7264,0,0,0,0,0,0,0,0.6956,0.6968,0.7079,0.7061,0.7064,0.7068,0.7077,0.7127,0.7164,0.7119,0.712,0.713,0.7202,0.7223,0.7229,0.7306,0.7258,0.7262,0.7265,0.7267,0.7426,0.7427,0,0,0,0,0,0,0.6947,0.6963,0.7077,0.7082,0.7009,0.7072,0.7082,0.7109,0.7164,0.7171,0.7131,0.713,0.7215,0.7224,0.7233,0.7297,0.7263,0.7267,0.727,0.7424,0.7426,0.7427,0,0,0,0,0,0,0.6944,0.6957,0.7073,0.7023,0.7038,0.7076,0.7105,0.7111,0.7131,0.7173,0.718,0.7145,0.7214,0.7226,0.728,0.7301,0.7269,0.7274,0.7423,0.7425,0.7427,0.7428,0,0,0,0,0,0,0.6939,0.6956,0.6977,0.7023,0.7041,0.7118,0.7107,0.7113,0.7139,0.7139,0.7188,0.7195,0.7214,0.7273,0.7284,0.7307,0.7277,0.7421,0.7424,0.7426,0.7426,0.743,0.7433,0,0,0,0,0,0.6934,0.6974,0.6977,0.6991,0.7067,0.712,0.713,0.7151,0.7141,0.7162,0.7188,0.7193,0.7297,0.7278,0.7292,0.7316,0.742,0.7423,0.7426,0.7425,0.7429,0.7433,0,0,0,0,0,0,0.693,0.6981,0.6985,0.7042,0.7076,0.7122,0.7149,0.7155,0.7194,0.7192,0.7217,0.7228,0.728,0.7304,0.7282,0.7369,0.7357,0.7363,0.7352,0.7357,0.736,0.7353,0.7281,0,0,0,0,0,0.6936,0.6974,0.7017,0.7063,0.7079,0.7111,0.7135,0.7148,0.7185,0.72,0.723,0.7266,0.7307,0.7333,0.7373,0.743,0.744,0.7453,0.7457,0.7459,0.7464,0.7494,0.75,0.7437,0.7437,0.7437,0,0,0.6948,0.6981,0.7003,0.7063,0.7091,0.713,0.7123,0.7165,0.7194,0.7207,0.7258,0.7282,0.7324,0.7379,0.7405,0.74,0.7483,0.7463,0.7465,0.7468,0.7498,0.7504,0.7509,0.7439,0.7439,0.7439,0,0,0.699,0.7019,0.706,0.7088,0.713,0.7151,0.716,0.7205,0.722,0.7273,0.7282,0.7318,0.7387,0.7416,0.744,0.7491,0.7497,0.7504,0.7521,0.755,0.7555,0.756,0.7577,0.7583,0.7509,0.7509,0.7509,0,0.7001,0.7059,0.708,0.7121,0.7146,0.7158,0.7199,0.7226,0.7279,0.7296,0.729,0.7376,0.7406,0.7467,0.7479,0.7499,0.751,0.7498,0.7553,0.7557,0.7562,0.7578,0.7585,0.7509,0.7509,0.7509,0.7509,0,0.7069,0.7109,0.7137,0.7187,0.7215,0.7256,0.7283,0.731,0.732,0.7341,0.7394,0.7429,0.7475,0.7491,0.7503,0.7554,0.7549,0.7548,0.7536,0.7568,0.7584,0.759,0.751,0.7509,0.7509,0.7509,0,0,0.7111,0.7171,0.7181,0.7203,0.725,0.7282,0.7323,0.7367,0.7388,0.7425,0.7459,0.7517,0.7516,0.7543,0.7557,0.7583,0.762,0.7578,0.758,0.7584,0.7677,0.7676,0.7684,0.7624,0.7625,0.7626,0.7672,0,0.7158,0.723,0.725,0.7312,0.7349,0.736,0.7395,0.7428,0.7449,0.7483,0.7506,0.7546,0.7542,0.7558,0.7584,0.7609,0.7638,0.7607,0.7656,0.7657,0.7644,0.7692,0.7693,0.7735,0.7679,0.768,0.7681,0,0.7222,0.7258,0.7323,0.7363,0.738,0.7411,0.7452,0.7486,0.7523,0.7536,0.7565,0.7577,0.762,0.7606,0.7665,0.7643,0.7664,0.768,0.7682,0.7687,0.767,0.7697,0.7749,0.7755,0.7691,0.769,0.769,0,0.7244,0.7309,0.7356,0.7375,0.7424,0.7446,0.7467,0.7503,0.7528,0.7564,0.758,0.7622,0.7644,0.7676,0.7698,0.7686,0.7755,0.7743,0.7767,0.7766,0.778,0.7779,0.7835,0.7795,0.7795,0.7795,0.7795,0,0.7293,0.7332,0.7367,0.7395,0.7439,0.7461,0.7504,0.7526,0.7558,0.7591,0.7604,0.7634,0.7663,0.7697,0.7715,0.7761,0.7771,0.7783,0.7787,0.7781,0.7779,0.7795,0.7792,0.7797,0.7797,0.7796,0.7796,0,0.7326,0.735,0.7402,0.7444,0.7455,0.7485,0.7521,0.7549,0.757,0.7612,0.7623,0.7655,0.7696,0.7722,0.7775,0.7787,0.7836,0.784,0.7823,0.7825,0.7846,0.7843,0.7914,0.7923,0.7878,0.7879,0.7879,0,0.7355,0.7385,0.743,0.7452,0.7473,0.751,0.7535,0.7558,0.7583,0.7627,0.765,0.7691,0.7726,0.7791,0.782,0.786,0.7864,0.7886,0.787,0.7863,0.7863,0.786,0.7863,0.7888,0.7889,0.7889,0.7889,0,0.7404,0.7414,0.7449,0.7488,0.7517,0.755,0.7582,0.76,0.7628,0.7656,0.7697,0.7724,0.7777,0.7818,0.786,0.7883,0.789,0.7894,0.7901,0.7895,0.7883,0.7888,0.7829,0.7892,0.7892,0.7891,0.7891,0.7891,0.7435,0.7461,0.7496,0.7535,0.7561,0.759,0.7618,0.7642,0.7677,0.7721,0.7732,0.7776,0.7811,0.7868,0.7891,0.7926,0.7923,0.7933,0.7936,0.7938,0.7937,0.7878,0.7934,0.7934,0.7934,0.7933,0.7933,0,0.7483,0.7506,0.7541,0.7584,0.7614,0.7618,0.7654,0.7679,0.7716,0.7748,0.7781,0.7829,0.7868,0.7899,0.794,0.7961,0.7965,0.7971,0.7969,0.7974,0.7939,0.7928,0.7966,0.7966,0.7966,0.7966,0.7966,0.7966,0.7511,0.7556,0.757,0.7628,0.765,0.7692,0.7712,0.7739,0.7764,0.7816,0.7848,0.7868,0.79,0.7942,0.7978,0.7987,0.8,0.8005,0.8013,0.798,0.7976,0.7973,0.7963,0.8008,0.8008,0.8046,0.8046,0.8046]},{"header":{"parameterUnit":"m.s-1","parameterCategory":1,"la1":30.2991,"la2":30.254,"lo1":-89.0895,"lo2":-89.0444,"dy":0.0017,"dx":0.0017,"nx":28,"ny":28,"refTime":"2025-04-09T09:00:00:Z","depth":0,"parameterNumber":3,"parameterNumberName":"V-component_of_WINDS"},"data":[0,0,0,0,0,0,0,0,0,0,0,0,0,0,0,0,0,0,0,0,0,0,0,0,0,0,0,0,0,0,0,0,0,0,0,0,0,0,0,0,0,0,0,0,0,0,0,0,0,0,0,0,0,0,0,0,0,0,3.1025,3.1025,0,3.0974,3.0973,3.0973,3.0925,3.0925,3.0924,3.0924,3.087,3.0869,3.0868,0,0,0,0,0,0,0,0,0,0,0,0,0,3.1079,3.1079,3.1025,3.1025,3.1024,3.0974,3.0973,3.0973,3.0925,3.0925,3.0924,3.0923,3.087,3.0869,3.0868,0,0,0,0,0,0,0,0,0,0,0,0,0,3.1045,3.1078,3.1025,3.0994,3.0991,3.0974,3.0973,3.0973,3.0926,3.0925,3.0924,3.0923,3.0871,3.0869,3.0868,3.0877,0,0,3.0864,3.0864,0,0,0,0,0,0,0,0,3.1047,3.1043,3.1,3.0997,3.0993,3.0955,3.0973,3.0941,3.0926,3.095,3.0924,3.0923,3.0899,3.0895,3.0888,3.0875,3.0873,3.0864,3.0863,3.0863,3.0862,0,0,0,0,0,0,0,3.1049,3.1045,3.1005,3.0999,3.0995,3.0982,3.0976,3.0966,3.093,3.0948,3.0945,3.0939,3.0897,3.0889,3.0886,3.0872,3.0864,3.0863,3.0862,3.0861,3.086,3.0861,0,0,0,0,0,0,3.1057,3.1047,3.1007,3.1003,3.1018,3.0982,3.0975,3.0968,3.093,3.0924,3.094,3.0937,3.0892,3.0888,3.0884,3.089,3.0863,3.0861,3.0861,3.086,3.086,3.0861,0,0,0,0,0,0,3.1058,3.1054,3.1009,3.1024,3.1018,3.0982,3.0974,3.0968,3.0959,3.0924,3.0917,3.0939,3.0891,3.0886,3.0879,3.0887,3.0861,3.086,3.0859,3.086,3.0861,3.0903,0,0,0,0,0,0,3.106,3.1054,3.1058,3.1025,3.1017,3.1005,3.0975,3.0967,3.0957,3.0953,3.0921,3.0915,3.089,3.0881,3.0877,3.0885,3.0859,3.0858,3.0859,3.0861,3.0901,3.0905,3.091,0,0,0,0,0,3.1062,3.1073,3.1059,3.1054,3.1021,3.1006,3.1001,3.0973,3.0959,3.0961,3.0938,3.0916,3.0887,3.0881,3.0876,3.0883,3.0857,3.0859,3.086,3.0899,3.0904,3.0909,0,0,0,0,0,0,3.1108,3.1068,3.1052,3.1052,3.1033,3.0998,3.1001,3.098,3.0964,3.0961,3.0926,3.0919,3.0915,3.0899,3.0892,3.0889,3.0869,3.087,3.0899,3.0905,3.0909,3.0912,3.0857,0,0,0,0,0,3.1119,3.111,3.1075,3.1079,3.107,3.1037,3.103,3.1009,3.0987,3.0979,3.0955,3.0934,3.092,3.0912,3.0897,3.0898,3.0889,3.0901,3.0905,3.0909,3.091,3.0906,3.091,3.0867,3.0867,3.0867,0,0,3.114,3.1117,3.1114,3.1087,3.107,3.1061,3.1031,3.1023,3.1015,3.0977,3.0968,3.095,3.0925,3.0921,3.0918,3.0907,3.092,3.0911,3.0915,3.0913,3.0908,3.0912,3.0916,3.0868,3.0868,3.0868,0,0,3.1173,3.1156,3.1156,3.1138,3.1112,3.109,3.109,3.1058,3.1044,3.1035,3.1005,3.0995,3.0973,3.0954,3.0942,3.0966,3.0944,3.0963,3.0985,3.0982,3.0986,3.0988,3.0994,3.0997,3.0964,3.0964,3.0964,0,3.1203,3.1188,3.1158,3.1151,3.1139,3.1105,3.1103,3.1088,3.1058,3.105,3.1039,3.1007,3.0988,3.0978,3.0983,3.0976,3.0973,3.0966,3.0988,3.099,3.0992,3.0998,3.1,3.0966,3.0966,3.0966,3.0966,0,3.1224,3.1215,3.1218,3.1189,3.1178,3.1174,3.1142,3.1134,3.1114,3.1092,3.1082,3.1057,3.1035,3.1031,3.1012,3.1018,3.1011,3.0995,3.0973,3.0999,3.1003,3.1005,3.0969,3.0969,3.0968,3.0967,0,0,3.1285,3.1239,3.1241,3.1226,3.1194,3.1185,3.1179,3.1157,3.115,3.113,3.1122,3.1103,3.1086,3.1072,3.105,3.1048,3.1065,3.103,3.1029,3.1036,3.1066,3.1078,3.1081,3.1051,3.1051,3.1051,3.1068,0,3.1311,3.1298,3.127,3.1265,3.1254,3.122,3.1214,3.1192,3.1172,3.1159,3.1136,3.1121,3.1102,3.1093,3.1089,3.1064,3.107,3.1063,3.1041,3.104,3.1047,3.1084,3.1097,3.1114,3.1069,3.107,3.107,0,3.134,3.1322,3.1316,3.1282,3.1276,3.1271,3.1248,3.1237,3.1211,3.1196,3.118,3.1155,3.1144,3.1126,3.1109,3.1105,3.1094,3.108,3.108,3.1075,3.1056,3.1078,3.1119,3.1121,3.1073,3.1072,3.1072,0,3.1382,3.1356,3.1348,3.1337,3.1298,3.1295,3.1279,3.1252,3.124,3.122,3.1211,3.119,3.1178,3.1161,3.1131,3.1121,3.1116,3.1096,3.1102,3.1102,3.1101,3.1102,3.1139,3.1098,3.1098,3.1098,3.1098,0,3.1413,3.141,3.1366,3.1361,3.1356,3.1323,3.1318,3.1299,3.1275,3.1264,3.1234,3.1224,3.1186,3.1171,3.1147,3.1135,3.1131,3.1117,3.111,3.1118,3.112,3.111,3.1107,3.1098,3.1098,3.1098,3.1098,0,3.1458,3.143,3.1418,3.1382,3.1373,3.137,3.1338,3.1331,3.1309,3.1295,3.129,3.1254,3.1235,3.1203,3.1175,3.1159,3.1151,3.1141,3.116,3.1155,3.1162,3.1161,3.1192,3.1193,3.1154,3.1154,3.1155,0,3.1479,3.1476,3.1439,3.143,3.1414,3.14,3.1388,3.1355,3.1343,3.1312,3.1308,3.1286,3.1267,3.1238,3.1208,3.1186,3.1174,3.1186,3.117,3.1178,3.1171,3.1171,3.117,3.119,3.119,3.1191,3.1191,0,3.1518,3.1503,3.1487,3.1465,3.1451,3.1432,3.1412,3.1406,3.1368,3.1355,3.1336,3.1321,3.1291,3.1269,3.1243,3.1224,3.12,3.1197,3.1196,3.1204,3.1214,3.1206,3.1168,3.1196,3.1195,3.1195,3.1195,3.1195,3.155,3.1544,3.1517,3.1499,3.148,3.1461,3.1452,3.1428,3.1411,3.1385,3.1366,3.1347,3.1319,3.128,3.1263,3.1246,3.1236,3.1236,3.1235,3.1236,3.1238,3.1218,3.1241,3.1241,3.1241,3.124,3.124,0,3.1585,3.1565,3.1549,3.1521,3.1507,3.1487,3.1463,3.1452,3.1435,3.1412,3.1393,3.1369,3.1347,3.1316,3.1291,3.1283,3.1272,3.1278,3.1277,3.1273,3.1249,3.1251,3.1287,3.1287,3.1287,3.1287,3.1287,3.1287,3.1601,3.159,3.1572,3.1551,3.1531,3.1512,3.15,3.1481,3.1462,3.1437,3.1419,3.1398,3.137,3.1343,3.1321,3.1312,3.1304,3.1313,3.13,3.1279,3.1275,3.127,3.1272,3.1312,3.1312,3.1324,3.1325,3.1325]}]]